Forside
METAR-TAF:

METAR-TAF

Lufthavne :

Dodge Center Airport (Dodge Center Municipal)

Dodge Center, Minnesota, USA

Breddekreds: 44-01-05N, længdekreds: 092-49-53W, højde: 398 m

Aktuelle vejr

Denne rapport blev lavet for 29 minutter siden, kl. 02:35 UTC
Vind 11 kt fra sydsydvest
Temperatur 22°C
Fugtighed 78%
Tryk 1011 hPa
Sigt: 16.1 km
Spredte skyer i en højde af 4000 ft
Brudte skyer i en højde af 4700 ft

METAR: KTOB 250235Z AUTO 20011KT 10SM SCT040 BKN047 22/18 A2985 RMK AO2 PWINO

Tid: 22:04 (03:04 UTC)


TAF: fraværende

Vejrobservationer og prognoser fra mere end 4000 lufthavne (METAR og TAF).

De gule og røde prikker repræsenterer de meteorologiske stationer.

Flyt musen over at se navnet på stationen.

Så klik over at se vejr observationer og prognoser.

At skifte det kort: Klik på de grønne knapper med et sort kors for at zoome ind; på den grønne knap med en bindestreg for at zoome ud; eller på de grønne pile for tilstødende kort.


METAR-TAF: